Theta_e
332 330 329 328 328 327 327 326 324 323 323 323 323 322 321 320 319 318 316 314 313 312 314 316 314 313 314 314 314 315 313 314 317 319 320 321 321 321 320 318 318 320 322 324 325 327 327 327 326 326 328 329 329 329 330 330 330 330 330 331 332 332 332
329 328 327 327 326 326 325 324 322 321 321 320 319 317 316 315 314 313 312 311 311 311 311 312 311 311 311 310 310 311 310 311 313 315 316 317 317 317 316 315 318 320 321 322 323 323 324 325 325 325 326 325 324 326 328 329 329 329 330 331 331 331 331
327 326 326 325 325 324 323 321 320 318 317 316 314 313 312 312 311 311 311 310 310 310 310 310 310 310 309 309 309 309 309 309 309 311 311 311 312 313 312 313 316 318 319 319 320 321 321 321 322 323 323 323 323 324 325 326 327 328 329 329 330 331 331
326 325 324 324 323 322 321 320 318 316 315 312 311 311 311 310 310 310 309 309 309 308 308 307 307 307 306 307 307 306 306 306 306 308 309 308 308 310 310 312 314 315 316 317 318 318 318 319 319 320 320 321 322 322 323 322 322 323 326 327 329 331 332
324 323 322 322 321 320 319 318 317 316 314 311 310 310 310 309 309 308 308 307 306 306 305 304 304 304 304 304 303 303 303 302 303 304 304 304 305 307 308 310 312 314 314 314 314 315 315 316 317 317 318 319 319 320 320 320 319 320 322 325 327 330 331
321 320 320 319 319 318 317 317 316 313 311 310 309 309 308 307 306 306 305 304 303 302 301 301 301 300 301 301 300 299 300 300 300 301 300 299 302 305 307 308 310 312 312 312 312 313 313 314 314 315 315 316 317 318 318 319 320 320 320 323 326 328 329
318 318 317 317 317 316 315 315 313 311 309 308 308 306 305 305 303 302 302 300 300 299 298 298 298 298 298 298 298 297 298 297 297 299 299 298 299 301 303 307 310 311 311 311 310 311 311 311 312 313 313 314 315 316 317 318 319 319 320 321 323 325 327
316 316 315 315 314 314 313 312 311 309 308 306 305 304 302 301 300 299 298 298 297 297 297 297 297 297 297 297 296 296 297 297 296 297 298 298 299 301 302 305 309 311 309 309 309 310 310 310 310 311 312 313 313 314 315 315 316 317 318 317 316 318 322
315 314 314 314 313 312 311 309 308 307 305 303 302 300 299 298 298 297 297 297 297 297 297 297 297 297 296 296 296 296 296 296 296 296 297 297 298 301 302 304 308 310 307 305 308 308 309 309 309 310 310 310 311 311 311 312 313 314 314 315 313 313 316
313 313 313 312 311 309 308 307 305 304 302 300 299 298 297 297 297 296 296 296 296 296 296 296 296 296 296 296 296 296 296 296 297 297 296 297 297 300 302 303 307 308 304 303 306 306 306 308 308 308 308 309 309 309 309 310 310 311 311 312 313 311 310
313 312 311 310 308 306 305 304 302 300 299 298 297 297 296 296 296 296 296 296 296 295 296 296 296 296 296 296 296 295 296 297 299 300 300 299 298 300 303 305 306 305 302 303 306 305 305 306 306 306 307 307 308 308 308 308 308 309 309 309 310 308 304
311 310 308 306 305 304 302 301 299 298 297 297 296 296 296 295 295 295 295 295 295 295 296 296 296 296 296 295 295 295 296 298 301 302 303 302 301 302 305 306 306 303 301 304 306 305 306 306 305 305 305 306 306 306 306 307 307 306 305 306 306 303 302
309 306 305 304 302 301 299 298 297 297 296 296 295 295 295 295 295 296 295 295 295 295 296 296 296 295 295 295 295 295 296 298 300 302 303 304 303 304 305 306 305 303 302 304 305 304 305 304 303 303 304 304 305 305 305 305 305 305 303 304 304 301 300
305 304 302 301 299 298 297 297 296 296 295 295 295 295 295 295 296 296 295 295 295 295 295 296 295 295 295 295 295 295 296 297 300 302 303 304 304 304 305 305 304 303 303 304 304 303 304 302 302 302 303 303 303 303 304 303 304 304 302 302 304 302 300
302 301 299 298 297 297 296 296 296 295 295 295 295 295 295 296 296 296 295 295 295 295 295 295 295 295 295 296 296 296 296 298 301 303 303 304 304 304 304 304 304 303 303 303 302 302 302 301 301 301 301 302 302 302 302 302 302 303 302 302 303 302 302
299 298 298 297 297 296 296 295 295 295 295 295 295 295 295 295 295 295 295 295 295 295 295 295 295 295 295 296 296 297 298 300 302 303 303 304 304 303 304 303 303 303 302 301 301 300 299 299 299 299 299 300 301 301 301 301 301 302 302 302 302 303 303
298 297 297 296 296 296 295 295 295 295 296 296 295 295 295 295 295 295 295 295 295 295 295 295 295 295 295 295 296 297 299 301 303 304 303 303 303 303 303 303 302 302 301 301 300 299 298 298 298 298 298 298 299 300 300 300 301 301 301 301 302 303 303
297 297 296 296 295 295 294 295 296 296 296 295 295 295 295 295 295 295 295 295 294 295 294 295 295 295 295 295 296 298 299 301 303 303 303 303 303 302 302 302 301 301 300 300 299 298 298 297 297 297 298 298 299 299 299 299 300 300 301 301 301 302 302
296 296 296 295 295 294 295 295 296 296 296 296 295 295 294 295 295 294 295 294 294 295 294 295 295 294 295 294 295 298 300 301 303 303 303 303 302 302 302 301 301 300 299 299 298 297 297 297 297 297 297 298 298 298 298 299 299 300 300 300 300 301 301
296 295 295 295 294 294 295 295 295 295 296 296 296 296 295 294 294 294 294 294 294 294 294 295 294 294 295 294 296 300 302 302 303 303 302 302 302 301 301 300 300 299 299 298 297 297 297 297 296 296 296 297 297 297 297 298 298 299 299 299 299 300 300
296 295 294 294 294 295 295 295 295 294 295 295 295 295 295 295 295 294 294 294 294 294 294 295 294 294 295 294 297 302 303 302 303 303 302 302 301 301 300 300 300 299 298 298 297 297 297 297 296 296 296 296 296 296 297 297 298 298 298 298 299 299 299
296 296 296 295 295 295 295 295 295 294 294 294 294 295 295 296 296 295 294 294 294 294 294 294 294 294 295 294 297 301 303 302 302 302 301 301 301 300 299 299 299 298 298 297 297 297 297 296 295 295 296 296 296 296 297 297 297 298 298 298 298 299 299
298 298 298 297 296 295 294 294 294 294 293 294 294 294 294 295 296 296 294 294 294 294 294 294 294 294 295 294 295 300 302 302 302 301 301 300 300 299 299 299 298 298 298 297 297 297 297 296 295 295 296 296 296 296 297 297 297 297 298 298 298 298 298
300 298 298 297 297 296 295 294 294 293 293 294 293 294 294 294 296 295 294 293 294 294 293 294 294 294 295 295 295 298 301 301 301 301 300 300 300 299 299 298 298 298 298 297 297 297 296 295 295 296 296 296 296 297 297 297 297 297 297 297 297 298 298
300 299 298 297 296 296 295 294 294 293 293 293 293 294 294 294 296 296 295 293 293 294 293 294 294 294 294 295 295 298 301 301 300 301 300 300 300 299 299 298 298 298 298 297 297 296 295 295 296 296 296 297 297 297 297 297 297 297 297 297 297 297 298
300 299 297 296 296 296 296 296 296 294 293 293 293 293 293 294 295 296 296 295 293 293 293 294 294 294 294 295 295 298 300 300 300 300 300 299 299 299 299 298 297 297 297 297 296 296 295 296 296 296 297 297 297 297 297 297 297 297 297 297 297 297 297
298 298 297 297 298 298 298 298 298 297 296 295 294 294 293 293 294 295 296 295 293 293 294 293 294 294 294 295 295 298 300 301 300 300 300 299 299 299 298 297 297 297 297 296 296 295 295 296 296 296 296 297 297 297 297 297 297 297 297 297 297 297 297
300 300 300 300 299 299 298 299 299 299 298 297 296 295 293 293 293 294 296 296 294 293 293 293 293 294 294 294 295 298 300 300 300 300 299 299 299 299 298 297 297 296 296 296 295 295 295 295 295 296 296 296 296 296 296 296 296 296 297 297 297 297 297
301 301 300 300 300 299 299 299 299 300 299 298 297 295 294 293 293 292 294 296 295 293 292 293 293 293 294 294 295 298 299 299 300 300 299 299 299 298 298 297 296 296 295 294 295 295 295 295 295 296 296 296 296 296 296 296 296 296 296 296 297 297 297
301 301 300 300 300 300 300 300 300 300 300 299 299 298 296 294 293 292 292 295 296 294 292 293 293 293 294 294 295 297 298 298 299 299 299 298 298 298 298 297 296 295 294 294 294 294 294 294 294 295 296 296 296 296 296 296 295 295 296 296 297 297 296
301 301 301 300 300 300 300 301 300 300 300 300 300 299 298 296 294 293 292 292 294 294 293 292 293 293 293 293 293 296 297 297 298 299 299 298 298 298 297 297 296 294 293 293 294 294 294 294 294 295 296 296 296 296 295 295 295 296 296 296 296 296 296
301 301 301 300 300 301 301 301 301 301 300 300 300 299 299 298 297 296 294 292 292 293 293 292 292 292 293 293 292 294 295 295 296 298 299 297 297 298 297 297 296 294 292 293 293 293 294 294 294 295 295 295 295 295 295 295 295 296 296 296 296 296 296
301 301 300 300 301 301 301 301 301 301 300 300 300 300 300 299 299 299 298 296 293 292 292 292 292 292 292 292 292 293 294 294 294 296 298 298 297 297 297 297 296 294 292 293 293 294 294 295 294 295 295 295 295 295 295 295 295 295 296 296 296 296 296
301 301 300 301 301 301 301 301 301 301 300 300 300 300 301 300 300 300 299 299 297 295 294 293 292 292 292 292 292 292 293 293 293 295 297 298 297 297 297 297 296 294 292 292 293 294 295 295 295 295 295 295 295 295 295 295 295 295 296 296 296 296 296
301 301 300 301 301 301 301 301 301 301 301 300 301 301 301 300 300 300 300 300 299 298 296 295 293 292 292 292 292 292 292 292 292 293 296 297 297 296 296 296 295 293 292 292 293 294 295 295 295 295 295 295 295 295 295 295 295 295 295 296 296 296 296
300 301 301 301 301 301 301 301 301 301 301 302 302 301 301 300 300 300 300 299 300 299 299 297 294 291 291 291 291 291 292 292 292 292 294 296 296 296 295 295 294 293 293 293 292 293 294 295 295 295 295 295 295 295 295 295 295 295 295 295 295 296 296
300 301 301 302 302 302 302 301 301 301 302 302 301 301 301 300 300 300 299 299 300 299 300 299 296 292 291 291 291 291 291 291 292 292 293 296 296 294 294 294 294 294 294 294 293 293 294 295 295 295 295 295 295 295 295 295 295 295 295 295 295 295 296
Wind_Speed
4 3 4 3 2 2 2 1 1 3 3 3 3 3 5 5 5 6 7 7 7 8 7 7 8 9 8 8 8 8 8 8 8 8 9 10 11 12 12 12 12 13 13 13 15 16 20 24 26 25 22 20 21 21 20 20 20 22 23 21 20 20 21
4 4 3 3 3 2 2 1 2 2 3 2 3 5 7 7 7 7 8 8 8 9 8 7 8 8 8 8 8 8 9 9 8 9 9 9 9 11 12 12 12 13 13 12 12 14 16 19 22 24 25 26 26 23 21 21 22 22 23 23 23 22 21
4 4 4 3 3 3 3 4 4 2 3 6 7 8 9 8 8 8 8 9 9 9 8 8 8 8 8 9 10 10 10 10 10 9 10 11 11 11 11 11 11 12 13 13 14 15 16 17 19 22 23 25 27 27 24 23 22 22 23 23 25 25 22
5 4 5 5 4 5 5 5 5 5 6 9 10 9 9 9 9 9 8 9 9 9 9 9 9 10 10 10 11 11 12 12 12 10 10 11 11 11 11 10 10 11 12 13 14 15 16 17 20 22 22 22 25 27 26 26 25 24 24 23 23 25 23
5 5 6 7 6 6 6 6 6 5 7 11 11 10 10 10 9 9 10 10 10 11 11 11 11 11 11 11 11 11 12 12 12 12 12 13 12 12 11 10 10 11 11 11 12 13 14 16 18 21 22 22 24 26 26 27 28 25 22 22 21 21 22
6 7 7 7 8 8 8 7 6 7 10 11 11 11 11 11 11 11 11 11 11 12 11 11 11 11 11 11 11 11 11 12 12 13 14 15 14 12 11 10 10 11 11 12 13 13 14 15 16 19 21 21 23 26 26 25 25 26 23 21 20 19 20
7 8 8 8 8 8 8 7 8 11 12 12 11 12 12 12 12 12 12 12 12 12 12 12 12 11 12 12 12 12 12 13 14 14 15 16 16 14 13 12 10 11 12 13 14 14 15 15 16 18 21 23 23 24 24 23 23 25 24 22 19 19 22
7 7 8 8 7 8 9 10 12 12 12 12 13 12 12 12 12 12 12 12 12 12 12 12 13 13 13 14 14 14 13 14 16 16 16 17 16 16 15 13 11 11 12 12 13 14 14 15 16 17 20 23 25 24 23 23 22 22 24 25 24 21 24
7 7 8 8 9 10 12 12 13 13 13 13 13 13 13 12 13 13 13 13 13 13 13 13 14 14 14 15 15 14 14 16 17 17 17 17 17 16 15 14 12 11 13 13 12 12 13 14 15 16 17 19 23 25 25 25 25 24 24 26 28 26 25
9 9 9 10 12 14 14 14 14 14 14 13 13 13 13 13 13 14 13 13 14 14 14 14 15 15 16 16 16 15 16 18 18 18 18 18 18 16 15 16 14 12 14 14 13 13 14 14 15 16 16 17 18 22 24 26 28 28 26 25 28 31 31
9 10 12 13 15 16 15 15 14 14 14 14 14 14 14 14 14 14 14 15 15 15 15 16 16 17 17 17 17 18 18 19 17 17 18 18 18 17 16 16 15 14 15 15 15 16 16 16 16 16 16 16 17 18 21 25 28 29 28 27 28 31 34
10 13 16 16 16 16 15 15 14 14 15 14 14 15 15 15 15 16 16 17 17 17 17 17 18 18 18 18 19 19 19 18 16 15 16 17 17 16 15 15 15 16 16 16 15 16 16 16 17 17 17 16 16 17 19 22 27 30 29 30 32 34 34
14 18 18 17 16 16 15 15 14 15 15 15 15 15 16 16 16 17 17 18 18 18 18 18 18 19 19 19 19 18 18 17 16 15 15 15 16 15 15 14 15 17 17 16 16 16 16 17 18 18 18 18 17 18 19 20 25 32 33 30 33 37 37
18 18 17 17 16 16 16 15 15 15 15 16 16 16 17 17 17 17 18 18 18 18 18 18 19 18 18 18 18 18 18 17 15 15 14 15 15 15 14 14 15 17 17 17 17 16 16 18 19 18 18 19 19 19 20 22 24 30 35 33 32 36 38
19 17 17 17 16 16 16 16 16 15 15 16 17 17 17 17 17 17 18 18 18 18 18 18 18 18 17 17 18 18 17 16 16 15 14 15 15 15 14 14 15 16 16 15 15 16 16 18 19 19 19 19 20 20 20 22 25 28 34 36 34 34 36
18 18 17 17 16 16 16 16 16 17 16 16 17 18 17 17 17 17 18 18 17 17 17 17 17 17 17 17 17 17 17 16 15 14 14 15 15 15 15 15 15 17 17 16 16 17 18 20 21 22 23 22 21 22 21 22 24 27 31 35 34 33 34
18 18 17 17 16 16 16 17 17 17 17 16 16 17 17 17 17 17 17 17 16 16 16 17 17 17 17 18 17 17 16 15 14 14 14 15 15 15 15 15 16 17 17 16 18 20 21 23 24 23 24 25 23 23 24 23 24 26 29 33 34 33 32
18 17 17 16 16 17 17 18 17 16 16 16 17 16 17 17 17 17 16 16 16 16 16 16 17 17 18 17 16 16 15 14 13 13 14 14 14 15 15 15 16 17 17 17 19 21 21 23 24 23 23 25 25 24 25 25 25 26 27 30 33 33 31
18 17 17 17 17 17 18 17 16 16 16 16 17 16 17 17 16 16 16 15 15 15 16 17 17 18 18 16 16 16 15 14 13 13 13 13 14 15 15 15 16 17 17 18 19 20 21 22 23 24 25 26 27 26 27 27 26 26 27 29 30 32 32
18 17 17 17 18 18 18 17 16 16 16 16 16 16 16 17 16 16 16 15 16 15 16 17 17 18 17 16 16 15 13 12 12 13 13 13 14 15 15 15 16 16 16 18 20 20 20 22 25 28 30 30 29 28 27 27 26 26 27 28 28 30 31
17 17 18 18 18 18 17 16 16 16 16 17 17 16 16 16 16 16 16 16 16 16 17 17 17 18 17 17 16 12 11 12 12 12 13 13 13 14 15 15 15 16 18 20 24 24 23 27 32 34 33 31 30 27 26 25 26 27 28 28 29 30 31
18 18 18 18 17 17 17 17 16 16 17 17 17 16 15 15 15 15 16 16 16 17 17 18 19 18 18 18 15 11 10 12 12 12 12 13 13 14 16 16 16 18 21 24 27 27 27 32 36 35 32 31 28 25 25 26 27 27 29 30 30 30 31
17 17 17 17 17 17 17 17 17 17 17 17 17 17 16 16 15 14 15 16 16 17 18 18 19 18 18 17 14 11 10 11 11 11 13 13 13 15 17 16 17 19 21 24 25 25 28 33 35 34 31 29 26 26 28 30 29 29 30 31 31 31 32
16 16 17 17 16 16 17 17 17 17 17 17 17 17 16 16 15 14 15 16 17 17 18 18 17 17 17 15 14 13 10 10 10 11 13 13 14 16 16 17 19 19 20 23 23 26 32 36 36 34 30 27 25 26 29 30 31 30 30 31 31 31 32
16 16 16 16 16 16 16 17 17 17 18 17 18 17 16 16 15 14 15 17 18 17 17 17 17 17 16 15 15 15 11 10 11 11 13 13 13 15 16 18 20 19 21 23 24 29 35 37 36 33 29 25 24 25 27 28 29 30 29 30 32 32 33
16 16 16 16 16 16 15 15 15 16 17 18 18 17 17 16 15 14 14 16 18 18 18 18 17 17 17 16 17 16 11 11 12 11 13 13 14 15 17 19 20 20 22 23 25 31 35 36 36 32 25 23 24 26 28 27 26 27 28 28 29 31 33
16 16 15 15 15 14 14 13 13 14 15 16 17 17 17 17 16 15 13 14 18 19 19 18 18 17 17 16 18 17 11 10 12 12 13 14 14 15 16 19 20 21 23 23 26 31 33 35 36 30 23 24 25 27 29 28 26 28 29 27 26 29 32
15 14 14 14 13 13 13 12 11 11 12 13 15 16 17 17 17 16 14 13 17 20 20 19 18 18 17 15 17 16 12 10 11 12 12 13 14 14 17 20 20 21 22 24 27 30 32 35 35 27 24 26 27 27 28 27 28 30 31 31 31 34 37
15 14 14 14 13 13 12 11 10 10 10 12 13 15 16 17 17 17 15 13 15 19 21 20 19 19 18 16 16 16 13 11 11 11 13 14 13 14 17 19 19 21 23 24 26 29 31 34 33 27 25 28 29 28 27 27 30 33 34 36 37 38 39
15 14 14 13 12 12 11 10 9 9 9 9 10 11 13 16 17 18 17 14 13 17 21 21 20 21 20 18 17 16 14 13 11 11 13 15 14 14 18 20 20 22 24 24 26 28 30 33 33 27 25 29 31 30 29 30 34 38 38 37 37 37 39
15 14 13 13 12 11 10 9 9 8 8 8 9 9 9 12 14 16 18 18 15 16 19 21 21 21 21 20 19 18 16 15 13 11 13 16 15 14 18 21 22 23 23 23 24 26 29 33 32 27 27 32 33 32 35 39 40 42 40 35 33 37 42
15 14 14 13 12 10 9 8 8 7 7 7 7 7 7 8 10 12 15 18 19 18 19 21 22 22 21 21 21 20 19 18 15 11 13 17 16 15 17 19 21 23 23 22 23 25 29 33 33 30 30 33 35 36 41 43 43 45 44 39 39 44 48
15 14 14 13 11 10 9 8 8 7 7 7 6 6 6 6 7 8 9 13 17 19 20 21 22 22 21 21 21 21 21 21 19 13 12 16 17 16 17 17 19 22 24 23 24 25 27 31 32 31 32 35 38 41 45 45 42 43 46 46 47 50 52
16 14 14 13 11 9 9 9 8 8 7 7 7 6 5 5 4 5 5 7 12 16 19 20 21 21 20 20 21 21 21 21 21 17 13 15 17 17 17 18 20 23 25 26 27 26 26 28 31 32 32 35 38 40 43 46 44 43 47 51 52 53 55
16 15 13 12 11 9 9 9 8 7 7 6 6 6 5 4 4 4 4 4 7 11 16 19 20 20 19 18 19 19 20 20 20 19 15 14 16 18 17 19 22 25 27 29 30 28 26 27 29 31 32 36 38 37 39 43 43 43 49 55 54 55 57
16 15 13 12 10 9 8 8 7 6 5 4 4 4 4 4 4 4 4 4 5 7 11 15 19 20 18 18 18 19 19 20 20 19 16 13 16 18 18 19 24 28 29 31 32 31 28 27 28 30 33 35 37 35 36 41 45 48 53 55 55 57 60
16 14 13 11 10 9 8 7 6 5 4 3 3 3 3 3 4 4 5 4 5 6 7 10 16 19 18 19 19 20 21 22 21 20 17 14 17 19 17 20 26 30 31 31 32 32 29 27 28 30 32 35 35 34 36 40 47 52 54 55 57 59 61
Wind_Direction
146 167 165 160 168 175 198 230 5 326 290 273 291 328 11 29 25 11 16 21 19 24 26 17 10 11 8 360 354 352 350 347 345 338 331 331 332 321 307 305 305 303 304 307 311 313 311 308 306 308 311 309 308 310 310 309 307 307 307 300 291 288 285
142 144 138 130 124 147 222 164 83 2 341 29 43 45 51 48 42 38 37 37 36 37 36 30 23 20 15 10 3 0 0 357 349 339 331 329 329 324 320 323 329 329 326 324 323 320 315 310 308 310 312 310 309 311 311 312 311 310 309 303 297 295 293
118 123 120 111 96 93 80 80 92 65 47 72 72 65 65 59 52 48 45 42 41 40 38 35 30 27 23 19 12 7 6 2 354 344 335 334 335 331 329 333 337 336 334 333 332 328 321 315 309 308 312 313 311 309 310 309 306 307 308 305 300 297 295
110 113 111 102 86 85 86 82 82 76 78 84 79 73 71 67 60 54 50 48 45 42 40 38 34 31 31 27 18 11 9 4 0 357 348 342 342 340 339 343 345 342 341 336 331 328 324 319 314 310 311 313 309 306 307 303 299 301 306 307 302 297 294
105 107 106 105 101 98 97 94 89 80 83 85 82 77 72 69 64 58 53 49 45 42 39 37 36 32 33 31 22 15 13 8 6 7 2 354 350 347 345 350 353 350 346 339 334 334 330 323 318 314 313 315 311 308 309 308 307 308 308 308 306 301 298
105 108 106 105 105 103 100 98 99 95 91 87 83 77 72 66 62 57 53 48 44 43 39 37 37 32 37 38 25 21 22 16 16 18 14 8 3 358 356 356 358 355 348 343 343 342 337 332 327 320 318 320 315 311 313 314 314 314 312 311 313 312 308
103 103 104 102 100 102 104 103 103 101 95 88 81 75 71 67 62 56 52 49 46 45 42 41 43 38 42 45 34 30 31 29 31 29 24 21 18 16 15 8 3 359 350 345 345 344 340 339 336 330 326 323 319 316 315 315 314 314 314 310 308 314 312
101 101 103 104 102 104 109 110 107 103 95 88 83 77 72 67 63 59 54 53 51 51 48 46 48 46 45 47 41 36 36 38 38 35 31 28 26 25 23 18 12 1 351 349 349 347 342 339 337 335 332 328 325 322 319 317 314 311 311 307 301 304 306
110 113 111 112 113 110 110 110 106 102 96 90 84 78 73 68 66 65 60 57 56 53 53 52 52 52 50 50 48 41 43 46 43 39 37 34 31 28 24 22 20 360 350 356 355 348 344 342 340 337 335 332 328 325 323 320 316 312 314 315 310 307 309
132 130 118 115 115 112 110 108 103 100 96 90 86 80 77 72 69 70 65 62 62 58 57 58 57 56 55 54 53 48 48 49 44 39 38 37 34 30 24 23 20 360 355 4 359 351 351 347 343 340 337 335 330 325 323 319 315 314 316 319 316 313 314
124 122 116 116 115 113 111 107 103 100 95 90 87 83 79 76 73 73 70 66 65 61 59 59 58 57 56 54 53 50 48 46 40 33 31 30 30 28 24 20 12 0 2 8 360 353 355 349 345 343 338 334 330 325 322 316 310 311 314 316 315 314 315
105 114 118 118 116 112 109 105 102 99 95 91 89 86 83 80 76 72 70 67 64 59 56 57 56 55 54 52 50 49 47 43 37 30 24 22 23 25 23 16 7 3 6 9 1 355 354 348 344 343 337 335 332 326 322 316 308 309 314 315 314 317 318
114 119 120 116 114 111 106 104 102 98 96 93 90 89 86 81 76 72 68 65 63 60 56 55 54 53 51 50 48 47 46 43 36 31 25 19 18 19 19 14 7 6 9 8 360 356 352 345 345 345 340 336 333 328 324 319 309 308 313 314 314 319 322
120 120 117 114 111 108 106 104 101 99 100 97 92 90 88 83 77 72 70 66 63 60 56 54 53 51 49 48 47 46 46 42 35 30 24 18 15 16 17 13 7 5 7 4 359 357 351 347 349 348 342 336 333 329 325 321 312 308 314 317 316 318 323
120 117 114 113 110 108 108 105 102 99 99 98 95 90 86 83 78 73 70 66 62 59 55 53 52 50 48 47 45 43 42 39 33 26 21 17 14 15 14 12 8 4 2 1 360 357 351 350 352 348 343 339 333 330 327 322 316 311 312 316 317 317 321
119 117 115 113 111 110 108 105 104 102 97 95 94 90 84 80 78 74 69 64 61 58 53 51 50 48 47 47 46 42 37 33 26 20 19 16 13 13 12 11 9 2 358 358 358 358 355 354 354 351 348 343 333 329 328 322 318 314 311 313 314 315 317
120 117 115 114 112 111 109 106 103 100 96 91 88 86 83 78 74 71 68 64 59 56 51 48 47 44 44 45 46 40 32 27 21 16 17 14 12 12 11 10 8 2 358 358 355 355 356 354 352 350 348 343 333 328 326 323 319 315 312 311 311 312 313
121 118 116 114 112 112 110 106 101 96 94 90 85 82 80 77 72 68 65 62 57 54 49 46 43 41 41 41 44 41 31 25 20 15 16 14 11 12 11 10 7 1 359 359 355 353 353 352 350 346 342 337 331 326 323 320 318 315 312 310 310 310 311
122 119 118 115 114 112 107 104 101 97 92 87 84 80 76 75 71 66 62 57 55 51 47 44 40 38 37 35 41 41 28 23 20 14 16 14 10 12 11 9 4 359 360 359 356 353 350 349 348 344 340 335 330 326 323 320 319 316 313 310 310 311 312
123 121 119 117 114 110 105 102 100 98 94 89 85 80 77 73 68 64 58 52 50 47 46 44 38 36 34 30 39 38 20 18 18 12 15 14 11 12 10 7 3 359 0 359 353 350 348 346 344 342 340 336 332 328 325 323 320 317 315 314 312 311 311
124 122 120 117 113 108 105 102 99 96 94 91 87 82 77 71 65 60 55 49 45 42 42 41 37 36 31 27 37 35 14 17 20 12 13 13 11 11 8 6 2 358 359 355 351 349 345 340 339 340 339 337 333 329 326 324 322 320 318 315 313 312 311
123 120 117 114 111 108 107 103 99 95 92 89 86 82 78 74 67 59 52 48 43 39 37 36 33 32 28 25 33 35 17 17 19 11 11 13 10 8 8 4 358 359 359 353 351 349 340 334 336 338 339 338 335 332 329 326 323 320 318 315 313 313 311
120 118 116 113 111 109 108 104 100 96 92 88 85 82 78 76 71 61 52 46 42 38 35 34 30 27 24 21 26 38 27 14 17 14 9 12 9 5 6 2 356 358 357 352 349 341 332 335 341 342 341 342 342 338 333 329 324 320 317 315 313 311 310
122 120 117 114 110 107 105 102 99 95 91 86 84 81 76 74 71 61 52 46 43 39 34 33 30 26 25 20 26 44 36 12 16 15 8 11 9 3 2 358 357 357 352 351 347 335 333 341 345 344 345 348 347 340 332 326 321 319 316 312 310 308 306
123 120 120 118 115 110 104 100 96 92 89 84 81 78 74 71 68 59 48 43 43 40 35 33 29 26 28 25 33 50 42 17 18 13 7 10 5 1 359 354 356 354 350 352 345 335 340 346 346 346 349 348 343 339 335 327 321 319 316 311 309 306 304
129 129 129 125 118 111 105 100 94 89 86 82 78 76 71 68 67 61 48 39 40 40 36 33 29 28 30 29 36 46 37 17 19 12 8 8 3 2 359 354 355 353 353 354 345 340 344 348 349 351 348 343 341 341 340 335 328 324 320 315 309 307 308
132 129 125 118 112 110 108 102 93 86 83 79 76 72 68 64 63 64 53 36 35 37 35 33 30 29 30 31 38 42 29 12 14 10 7 7 6 2 351 349 355 355 353 353 348 347 349 350 352 352 344 340 340 339 338 336 332 331 329 325 317 313 315
128 126 125 121 119 117 112 105 98 92 86 81 76 71 67 62 58 60 57 40 32 33 33 32 31 30 30 33 40 38 27 14 10 7 5 4 5 359 346 347 355 354 351 352 351 352 353 353 355 352 343 342 340 336 337 335 330 330 332 333 330 325 325
133 133 130 127 124 120 114 106 101 97 90 83 77 70 65 62 57 56 58 49 33 30 32 32 31 32 31 33 40 36 23 15 12 6 4 1 359 357 349 349 353 352 351 353 354 355 356 358 358 351 344 344 341 338 338 335 332 335 337 338 337 333 329
138 135 132 130 128 124 118 112 106 100 94 86 78 69 62 59 57 54 55 57 44 31 32 33 31 33 32 32 39 38 22 13 14 8 2 359 357 355 349 345 347 350 350 351 354 357 1 2 1 354 348 346 344 341 340 340 341 344 343 339 335 332 330
141 138 137 135 131 126 120 117 112 102 95 89 81 77 66 55 53 50 48 53 52 38 33 32 31 33 32 29 35 38 25 15 15 10 2 359 357 356 350 343 342 345 348 349 352 359 6 5 0 356 352 348 345 343 344 347 348 348 344 336 331 332 336
145 143 143 139 133 128 124 120 113 102 93 88 82 82 77 62 55 49 42 43 47 43 34 30 30 30 28 26 29 35 29 19 16 12 1 358 356 355 353 345 339 343 349 349 350 360 8 5 359 356 352 346 343 343 346 350 350 347 345 341 338 339 342
147 147 147 142 134 129 127 120 113 108 101 96 94 89 82 70 58 52 40 32 36 40 35 28 25 25 24 22 25 32 32 22 17 15 4 355 352 351 352 348 341 345 353 354 352 358 4 1 358 355 349 344 343 344 347 349 347 344 345 345 344 345 345
150 150 148 143 136 133 130 121 113 110 103 96 95 89 81 73 56 47 40 21 19 28 30 25 21 21 20 19 20 28 32 24 17 16 7 353 349 349 348 346 345 350 359 2 360 0 1 358 355 352 346 344 345 345 347 347 345 344 348 349 348 347 347
152 150 149 144 139 135 131 125 120 117 109 94 86 81 76 76 63 38 35 21 4 9 15 15 15 17 17 16 18 24 28 23 16 14 6 348 345 347 343 342 347 355 3 4 3 2 360 355 352 349 346 345 346 346 345 344 343 346 351 351 349 349 349
154 152 150 147 142 138 132 126 122 119 113 97 82 76 67 61 58 42 34 30 11 4 2 359 4 11 14 15 18 22 25 21 15 12 7 350 341 340 340 347 354 359 1 1 0 0 357 351 347 347 347 346 346 346 345 342 343 348 352 351 350 351 352
157 153 152 149 146 146 142 132 125 120 119 116 100 85 69 51 50 41 32 27 16 15 8 352 354 3 11 16 17 19 21 19 12 10 9 353 335 332 339 353 360 358 356 355 356 356 352 345 344 346 347 346 346 346 345 342 344 349 352 351 351 352 352